Regional Weather Roundup
Issued by NWS Green Bay, WI

Home | Current Version | Previous Version | Graphics & Text | Print | Product List | Glossary Off
Versions: 1 2 3 4 5 6 7 8 9 10 11 12 13 14 15 16 17 18 19 20 21 22 23 24 25 26 27 28 29 30 31 32 33 34 35 36 37 38 39 40 41 42 43 44 45 46 47 48 49 50

000
ASUS43 KGRB 251510
RWRGRB

NORTH-CENTRAL AND NORTHEAST WISCONSIN REGIONAL WEATHER ROUNDUP
NATIONAL WEATHER SERVICE GREEN BAY WI
900 AM CST TUE NOV 25 2014

WIZ005-009-010>012-018-019-251600-
NORTH CENTRAL WISCONSIN

CITY           SKY/WX    TMP DP  RH WIND       PRES   REMARKS
IRONWOOD       CLOUDY    16  12  86 W13       29.89R WCI   2
MANITOWISH WTR LGT SNOW  15  11  86 W6        29.89R WCI   6
ARBOR VITAE    LGT SNOW  17  12  83 NW7       29.89R WCI   7
EAGLE RIVER    LGT SNOW  18  11  74 NW7       29.87R WCI   9
LAND O LAKES   LGT SNOW  19  15  84 N3        29.87R
RHINELANDER    LGT SNOW  15  11  83 W13       29.89R FOG     WCI   1
PHILLIPS       LGT SNOW  15  11  83 NW6       29.92R WCI   6
ANTIGO         LGT SNOW  17  13  84 W12       29.90R WCI   4
TOMAHAWK       SUNNY     15  10  81 W8        29.92R WCI   4
MERRILL        SUNNY     17  10  73 NW9       29.93R WCI   6
$$

WIZ013-073-251600-
NORTHEAST WISCONSIN

CITY           SKY/WX    TMP DP  RH WIND       PRES   REMARKS
IRON MOUNTAIN  LGT SNOW  21  14  74 NW12      29.87R WCI   9
MARINETTE      CLOUDY    25  18  74 NW6       29.91R
OCONTO         CLOUDY    23  21  92 W5        29.93R
$$

WIZ017-030-035>037-045-251600-
CENTRAL WISCONSIN

CITY           SKY/WX    TMP DP  RH WIND       PRES   REMARKS
MEDFORD        LGT SNOW  15  11  83 W8        29.94R WCI   4
WAUSAU         MOSUNNY   18  11  74 W13       29.93R WCI   5
MOSINEE        SUNNY     18  16  93 NW9       29.95R WCI   6
MARSHFIELD     FLURRIES  17  11  77 W9        29.96R WCI   6
WISC RAPIDS    LGT SNOW  19  11  70 W12       30.00R WCI   7
STEVENS POINT  MOSUNNY   18  13  80 W5        29.97R
WAUPACA        CLOUDY    24  17  75 NW9       29.98R
SHAWANO        CLOUDY    25  19  78 W9        29.94R
CLINTONVILLE   FLURRIES  23  19  86 W7        29.95R
$$

WIZ038-039-048-051-251600-
FOX VALLEY

CITY           SKY/WX    TMP DP  RH WIND       PRES   REMARKS
NWS GREEN BAY  PTSUNNY   24  19  81 W12       29.95R
APPLETON       PTSUNNY   21  19  93 W9        29.95R
OSHKOSH        PTSUNNY   22  15  75 W9        29.97R
FOND DU LAC    MOSUNNY   22  16  78 W13       29.98R WCI  10
$$

WIZ022-050-052-251600-
EAST CENTRAL WISCONSIN

CITY           SKY/WX    TMP DP  RH WIND       PRES   REMARKS
STURGEON BAY   CLOUDY    25  19  80 NW14      29.91R
MANITOWOC      FLURRIES  25  22  88 NW13      29.95R
SHEBOYGAN      PTSUNNY   24  19  81 W13       29.96R
$$

LMZ563-521-522-541>543-251600-
LAKESHORE

STATION/POSITION TIME  TEMP    WIND        PRES    VSBY  WAVE
                       AIR SEA DIR/SP/G                  HT/PER
                 (UTC) (F)     (DEG/KT/KT) (MB)    (MI)  (FT/S)
SHEBOYGAN LKSHOR 1500   24 37  280/ 13/ 17 1015.8R
KEWAUNEE LKSHORE 1500   24     310/  9/ 12 1012.6R
ALGOMA MARINA    1400             CALM       N/A
NORTHPORT PIER   1500   26     300/ 14/ 21 1011.9S
N MID LAKE BUOY  1500   29 42  310/ 23/ 27 1011.1R         5/ 5
CHAMBERS ISLAND  1500   25     290/  6/ 17 1012.5S
MENOMINEE LKSHOR 1500   25     270/  9/ 13 1013.6R
$$


USA.gov is the U.S. government's official web portal to all federal, state and local government web resources and services.